station,date_time,water_elev
365734089084501,05/02/2011 22:31,313.96
365734089084501,05/02/2011 22:32,314.33
365734089084501,05/02/2011 22:33,314.68
365734089084501,05/02/2011 22:34,314.97
365734089084501,05/02/2011 22:35,315.25
365734089084501,05/02/2011 22:36,315.45
365734089084501,05/02/2011 22:37,315.65
365734089084501,05/02/2011 22:38,315.83
365734089084501,05/02/2011 22:39,315.98
365734089084501,05/02/2011 22:40,316.1
365734089084501,05/02/2011 22:41,316.22
365734089084501,05/02/2011 22:42,316.31
365734089084501,05/02/2011 22:43,316.38
365734089084501,05/02/2011 22:44,316.45
365734089084501,05/02/2011 22:45,316.49
365734089084501,05/02/2011 22:46,316.54
365734089084501,05/02/2011 22:47,316.56
365734089084501,05/02/2011 22:48,316.58
365734089084501,05/02/2011 22:49,316.61
365734089084501,05/02/2011 22:50,316.62
365734089084501,05/02/2011 22:51,316.67
365734089084501,05/02/2011 22:52,316.68
365734089084501,05/02/2011 22:53,316.71
365734089084501,05/02/2011 22:54,316.75
365734089084501,05/02/2011 22:55,316.77
365734089084501,05/02/2011 22:56,316.84
365734089084501,05/02/2011 22:57,316.88
365734089084501,05/02/2011 22:58,316.93
365734089084501,05/02/2011 22:59,316.99
365734089084501,05/02/2011 23:00,317.03
365734089084501,05/02/2011 23:01,317.09
365734089084501,05/02/2011 23:02,317.16
365734089084501,05/02/2011 23:03,317.24
365734089084501,05/02/2011 23:04,317.32
365734089084501,05/02/2011 23:05,317.41
365734089084501,05/02/2011 23:06,317.51
365734089084501,05/02/2011 23:07,317.59
365734089084501,05/02/2011 23:08,317.67
365734089084501,05/02/2011 23:09,317.77
365734089084501,05/02/2011 23:10,317.86
365734089084501,05/02/2011 23:11,317.95
365734089084501,05/02/2011 23:12,318.01
365734089084501,05/02/2011 23:13,318.11
365734089084501,05/02/2011 23:14,318.17
365734089084501,05/02/2011 23:15,318.24
365734089084501,05/02/2011 23:16,318.32
365734089084501,05/02/2011 23:17,318.38
365734089084501,05/02/2011 23:18,318.48
365734089084501,05/02/2011 23:19,318.59
365734089084501,05/02/2011 23:20,318.69
365734089084501,05/02/2011 23:21,318.77
365734089084501,05/02/2011 23:22,318.85
365734089084501,05/02/2011 23:23,318.91
365734089084501,05/02/2011 23:24,318.98
365734089084501,05/02/2011 23:25,319.06
365734089084501,05/02/2011 23:26,319.12
365734089084501,05/02/2011 23:27,319.18
365734089084501,05/02/2011 23:28,319.24
365734089084501,05/02/2011 23:29,319.29
365734089084501,05/02/2011 23:30,319.35
365734089084501,05/02/2011 23:31,319.41
365734089084501,05/02/2011 23:32,319.45
365734089084501,05/02/2011 23:33,319.54
365734089084501,05/02/2011 23:34,319.57
365734089084501,05/02/2011 23:35,319.62
365734089084501,05/02/2011 23:36,319.66
365734089084501,05/02/2011 23:37,319.72
365734089084501,05/02/2011 23:38,319.78
365734089084501,05/02/2011 23:39,319.83
365734089084501,05/02/2011 23:40,319.88
365734089084501,05/02/2011 23:41,319.94
365734089084501,05/02/2011 23:42,319.98
365734089084501,05/02/2011 23:43,320.02
365734089084501,05/02/2011 23:44,320.08
365734089084501,05/02/2011 23:45,320.12
365734089084501,05/02/2011 23:46,320.16
365734089084501,05/02/2011 23:47,320.23
365734089084501,05/02/2011 23:48,320.26
365734089084501,05/02/2011 23:49,320.31
365734089084501,05/02/2011 23:50,320.35
365734089084501,05/02/2011 23:51,320.4
365734089084501,05/02/2011 23:52,320.44
365734089084501,05/02/2011 23:53,320.49
365734089084501,05/02/2011 23:54,320.53
365734089084501,05/02/2011 23:55,320.58
365734089084501,05/02/2011 23:56,320.61
365734089084501,05/02/2011 23:57,320.67
365734089084501,05/02/2011 23:58,320.7
365734089084501,05/02/2011 23:59,320.75
365734089084501,05/03/2011 00:00,320.79
365734089084501,05/03/2011 00:01,320.81
365734089084501,05/03/2011 00:02,320.86
365734089084501,05/03/2011 00:03,320.89
365734089084501,05/03/2011 00:04,320.95
365734089084501,05/03/2011 00:05,320.99
365734089084501,05/03/2011 00:06,321.04
365734089084501,05/03/2011 00:07,321.07
365734089084501,05/03/2011 00:08,321.1
365734089084501,05/03/2011 00:09,321.14
365734089084501,05/03/2011 00:10,321.17
365734089084501,05/03/2011 00:11,321.2
365734089084501,05/03/2011 00:12,321.24
365734089084501,05/03/2011 00:13,321.29
365734089084501,05/03/2011 00:14,321.32
365734089084501,05/03/2011 00:15,321.34
365734089084501,05/03/2011 00:16,321.38
365734089084501,05/03/2011 00:17,321.43
365734089084501,05/03/2011 00:18,321.46
365734089084501,05/03/2011 00:19,321.49
365734089084501,05/03/2011 00:20,321.52
365734089084501,05/03/2011 00:21,321.55
365734089084501,05/03/2011 00:22,321.58
365734089084501,05/03/2011 00:23,321.62
365734089084501,05/03/2011 00:24,321.64
365734089084501,05/03/2011 00:25,321.68
365734089084501,05/03/2011 00:26,321.71
365734089084501,05/03/2011 00:27,321.74
365734089084501,05/03/2011 00:28,321.76
365734089084501,05/03/2011 00:29,321.79
365734089084501,05/03/2011 00:30,321.82
365734089084501,05/03/2011 00:31,321.84
365734089084501,05/03/2011 00:32,321.89
365734089084501,05/03/2011 00:33,321.9
365734089084501,05/03/2011 00:34,321.92
365734089084501,05/03/2011 00:35,321.96
365734089084501,05/03/2011 00:36,321.97
365734089084501,05/03/2011 00:37,322.01
365734089084501,05/03/2011 00:38,322.03
365734089084501,05/03/2011 00:39,322.06
365734089084501,05/03/2011 00:40,322.09
365734089084501,05/03/2011 00:41,322.11
365734089084501,05/03/2011 00:42,322.13
365734089084501,05/03/2011 00:43,322.17
365734089084501,05/03/2011 00:44,322.18
365734089084501,05/03/2011 00:45,322.2
365734089084501,05/03/2011 00:46,322.22
365734089084501,05/03/2011 00:47,322.25
365734089084501,05/03/2011 00:48,322.27
365734089084501,05/03/2011 00:49,322.29
365734089084501,05/03/2011 00:50,322.31
365734089084501,05/03/2011 00:51,322.32
365734089084501,05/03/2011 00:52,322.34
365734089084501,05/03/2011 00:53,322.36
365734089084501,05/03/2011 00:54,322.39
365734089084501,05/03/2011 00:55,322.41
365734089084501,05/03/2011 00:56,322.42
365734089084501,05/03/2011 00:57,322.44
365734089084501,05/03/2011 00:58,322.46
365734089084501,05/03/2011 00:59,322.48
365734089084501,05/03/2011 01:00,322.49
365734089084501,05/03/2011 01:01,322.51
365734089084501,05/03/2011 01:02,322.54
365734089084501,05/03/2011 01:03,322.54
365734089084501,05/03/2011 01:04,322.55
365734089084501,05/03/2011 01:05,322.58
365734089084501,05/03/2011 01:06,322.58
365734089084501,05/03/2011 01:07,322.61
365734089084501,05/03/2011 01:08,322.62
365734089084501,05/03/2011 01:09,322.63
365734089084501,05/03/2011 01:10,322.64
365734089084501,05/03/2011 01:11,322.67
365734089084501,05/03/2011 01:12,322.68
365734089084501,05/03/2011 01:13,322.69
365734089084501,05/03/2011 01:14,322.7
365734089084501,05/03/2011 01:15,322.71
365734089084501,05/03/2011 01:16,322.72
365734089084501,05/03/2011 01:17,322.74
365734089084501,05/03/2011 01:18,322.75
365734089084501,05/03/2011 01:19,322.76
365734089084501,05/03/2011 01:20,322.78
365734089084501,05/03/2011 01:21,322.78
365734089084501,05/03/2011 01:22,322.79
365734089084501,05/03/2011 01:23,322.8
365734089084501,05/03/2011 01:24,322.82
365734089084501,05/03/2011 01:25,322.81
365734089084501,05/03/2011 01:26,322.84
365734089084501,05/03/2011 01:27,322.85
365734089084501,05/03/2011 01:28,322.86
365734089084501,05/03/2011 01:29,322.86
365734089084501,05/03/2011 01:30,322.86
365734089084501,05/03/2011 01:31,322.88
365734089084501,05/03/2011 01:32,322.89
365734089084501,05/03/2011 01:33,322.89
365734089084501,05/03/2011 01:34,322.93
365734089084501,05/03/2011 01:35,322.93
365734089084501,05/03/2011 01:36,322.94
365734089084501,05/03/2011 01:37,322.94
365734089084501,05/03/2011 01:38,322.94
365734089084501,05/03/2011 01:39,322.96
365734089084501,05/03/2011 01:40,322.96
365734089084501,05/03/2011 01:41,322.96
365734089084501,05/03/2011 01:42,322.98
365734089084501,05/03/2011 01:43,322.98
365734089084501,05/03/2011 01:44,322.98
365734089084501,05/03/2011 01:45,322.99
365734089084501,05/03/2011 01:46,322.98
365734089084501,05/03/2011 01:47,323
365734089084501,05/03/2011 01:48,323
365734089084501,05/03/2011 01:49,323
365734089084501,05/03/2011 01:50,323.01
365734089084501,05/03/2011 01:51,323.02
365734089084501,05/03/2011 01:52,323.01
365734089084501,05/03/2011 01:53,323.04
365734089084501,05/03/2011 01:54,323.05
365734089084501,05/03/2011 01:55,323.04
365734089084501,05/03/2011 01:56,323.05
365734089084501,05/03/2011 01:57,323.07
365734089084501,05/03/2011 01:58,323.07
365734089084501,05/03/2011 01:59,323.08
365734089084501,05/03/2011 02:00,323.1
365734089084501,05/03/2011 02:01,323.09
365734089084501,05/03/2011 02:02,323.1
365734089084501,05/03/2011 02:03,323.11
365734089084501,05/03/2011 02:04,323.11
365734089084501,05/03/2011 02:05,323.11
365734089084501,05/03/2011 02:06,323.13
365734089084501,05/03/2011 02:07,323.12
365734089084501,05/03/2011 02:08,323.14
365734089084501,05/03/2011 02:09,323.15
365734089084501,05/03/2011 02:10,323.15
365734089084501,05/03/2011 02:11,323.15
365734089084501,05/03/2011 02:12,323.16
365734089084501,05/03/2011 02:13,323.16
365734089084501,05/03/2011 02:14,323.17
365734089084501,05/03/2011 02:15,323.17
365734089084501,05/03/2011 02:16,323.19
365734089084501,05/03/2011 02:17,323.19
365734089084501,05/03/2011 02:18,323.21
365734089084501,05/03/2011 02:19,323.22
365734089084501,05/03/2011 02:20,323.21
365734089084501,05/03/2011 02:21,323.22
365734089084501,05/03/2011 02:22,323.22
365734089084501,05/03/2011 02:23,323.23
365734089084501,05/03/2011 02:24,323.23
365734089084501,05/03/2011 02:25,323.25
365734089084501,05/03/2011 02:26,323.24
365734089084501,05/03/2011 02:27,323.26
365734089084501,05/03/2011 02:28,323.26
365734089084501,05/03/2011 02:29,323.26
365734089084501,05/03/2011 02:30,323.26
365734089084501,05/03/2011 02:31,323.27
365734089084501,05/03/2011 02:32,323.28
365734089084501,05/03/2011 02:33,323.29
365734089084501,05/03/2011 02:34,323.29
365734089084501,05/03/2011 02:35,323.28
365734089084501,05/03/2011 02:36,323.29
365734089084501,05/03/2011 02:37,323.29
365734089084501,05/03/2011 02:38,323.29
365734089084501,05/03/2011 02:39,323.3
365734089084501,05/03/2011 02:40,323.31
365734089084501,05/03/2011 02:41,323.32
365734089084501,05/03/2011 02:42,323.32
365734089084501,05/03/2011 02:43,323.33
365734089084501,05/03/2011 02:44,323.35
365734089084501,05/03/2011 02:45,323.34
365734089084501,05/03/2011 02:46,323.34
365734089084501,05/03/2011 02:47,323.36
365734089084501,05/03/2011 02:48,323.36
365734089084501,05/03/2011 02:49,323.36
365734089084501,05/03/2011 02:50,323.37
365734089084501,05/03/2011 02:51,323.37
365734089084501,05/03/2011 02:52,323.38
365734089084501,05/03/2011 02:53,323.38
365734089084501,05/03/2011 02:54,323.39
365734089084501,05/03/2011 02:55,323.4
365734089084501,05/03/2011 02:56,323.4
365734089084501,05/03/2011 02:57,323.42
365734089084501,05/03/2011 02:58,323.41
365734089084501,05/03/2011 02:59,323.43
365734089084501,05/03/2011 03:00,323.43
365734089084501,05/03/2011 03:01,323.43
365734089084501,05/03/2011 03:02,323.44
365734089084501,05/03/2011 03:03,323.45
365734089084501,05/03/2011 03:04,323.45
365734089084501,05/03/2011 03:05,323.46
365734089084501,05/03/2011 03:06,323.46
365734089084501,05/03/2011 03:07,323.46
365734089084501,05/03/2011 03:08,323.47
365734089084501,05/03/2011 03:09,323.48
365734089084501,05/03/2011 03:10,323.48
365734089084501,05/03/2011 03:11,323.49
365734089084501,05/03/2011 03:12,323.49
365734089084501,05/03/2011 03:13,323.49
365734089084501,05/03/2011 03:14,323.51
365734089084501,05/03/2011 03:15,323.52
365734089084501,05/03/2011 03:16,323.52
365734089084501,05/03/2011 03:17,323.54
365734089084501,05/03/2011 03:18,323.54
365734089084501,05/03/2011 03:19,323.54
365734089084501,05/03/2011 03:20,323.55
365734089084501,05/03/2011 03:21,323.56
365734089084501,05/03/2011 03:22,323.56
365734089084501,05/03/2011 03:23,323.56
365734089084501,05/03/2011 03:24,323.56
365734089084501,05/03/2011 03:25,323.58
365734089084501,05/03/2011 03:26,323.56
365734089084501,05/03/2011 03:27,323.59
365734089084501,05/03/2011 03:28,323.59
365734089084501,05/03/2011 03:29,323.6
365734089084501,05/03/2011 03:30,323.6
365734089084501,05/03/2011 03:31,323.6
365734089084501,05/03/2011 03:32,323.61
365734089084501,05/03/2011 03:33,323.62
365734089084501,05/03/2011 03:34,323.62
365734089084501,05/03/2011 03:35,323.63
365734089084501,05/03/2011 03:36,323.63
365734089084501,05/03/2011 03:37,323.64
365734089084501,05/03/2011 03:38,323.64
365734089084501,05/03/2011 03:39,323.66
365734089084501,05/03/2011 03:40,323.66
365734089084501,05/03/2011 03:41,323.66
365734089084501,05/03/2011 03:42,323.67
365734089084501,05/03/2011 03:43,323.66
365734089084501,05/03/2011 03:44,323.67
365734089084501,05/03/2011 03:45,323.69
365734089084501,05/03/2011 03:46,323.69
365734089084501,05/03/2011 03:47,323.7
365734089084501,05/03/2011 03:48,323.71
365734089084501,05/03/2011 03:49,323.71
365734089084501,05/03/2011 03:50,323.71
365734089084501,05/03/2011 03:51,323.71
365734089084501,05/03/2011 03:52,323.71
365734089084501,05/03/2011 03:53,323.72
365734089084501,05/03/2011 03:54,323.73
365734089084501,05/03/2011 03:55,323.73
365734089084501,05/03/2011 03:56,323.75
365734089084501,05/03/2011 03:57,323.75
365734089084501,05/03/2011 03:58,323.75
365734089084501,05/03/2011 03:59,323.75
365734089084501,05/03/2011 04:00,323.76
365734089084501,05/03/2011 04:01,323.77
365734089084501,05/03/2011 04:02,323.78
365734089084501,05/03/2011 04:03,323.78
365734089084501,05/03/2011 04:04,323.79
365734089084501,05/03/2011 04:05,323.79
365734089084501,05/03/2011 04:06,323.8
365734089084501,05/03/2011 04:07,323.8
365734089084501,05/03/2011 04:08,323.81
365734089084501,05/03/2011 04:09,323.82
365734089084501,05/03/2011 04:10,323.82
365734089084501,05/03/2011 04:11,323.82
365734089084501,05/03/2011 04:12,323.81
365734089084501,05/03/2011 04:13,323.83
365734089084501,05/03/2011 04:14,323.83
365734089084501,05/03/2011 04:15,323.83
365734089084501,05/03/2011 04:16,323.85
365734089084501,05/03/2011 04:17,323.84
365734089084501,05/03/2011 04:18,323.86
365734089084501,05/03/2011 04:19,323.86
365734089084501,05/03/2011 04:20,323.87
365734089084501,05/03/2011 04:21,323.87
365734089084501,05/03/2011 04:22,323.86
365734089084501,05/03/2011 04:23,323.88
365734089084501,05/03/2011 04:24,323.87
365734089084501,05/03/2011 04:25,323.87
365734089084501,05/03/2011 04:26,323.89
365734089084501,05/03/2011 04:27,323.89
365734089084501,05/03/2011 04:28,323.88
365734089084501,05/03/2011 04:29,323.9
365734089084501,05/03/2011 04:30,323.91
365734089084501,05/03/2011 04:31,323.91
365734089084501,05/03/2011 04:32,323.91
365734089084501,05/03/2011 04:33,323.92
365734089084501,05/03/2011 04:34,323.91
365734089084501,05/03/2011 04:35,323.94
365734089084501,05/03/2011 04:36,323.92
365734089084501,05/03/2011 04:37,323.94
365734089084501,05/03/2011 04:38,323.93
365734089084501,05/03/2011 04:39,323.93
365734089084501,05/03/2011 04:40,323.95
365734089084501,05/03/2011 04:41,323.95
365734089084501,05/03/2011 04:42,323.96
365734089084501,05/03/2011 04:43,323.96
365734089084501,05/03/2011 04:44,323.96
365734089084501,05/03/2011 04:45,323.97
365734089084501,05/03/2011 04:46,323.97
365734089084501,05/03/2011 04:47,323.97
365734089084501,05/03/2011 04:48,323.98
365734089084501,05/03/2011 04:49,323.98
365734089084501,05/03/2011 04:50,323.99
365734089084501,05/03/2011 04:51,323.99
365734089084501,05/03/2011 04:52,323.99
365734089084501,05/03/2011 04:53,323.98
365734089084501,05/03/2011 04:54,323.99
365734089084501,05/03/2011 04:55,323.98
365734089084501,05/03/2011 04:56,324
365734089084501,05/03/2011 04:57,324
365734089084501,05/03/2011 04:58,324
365734089084501,05/03/2011 04:59,324.01
365734089084501,05/03/2011 05:00,324
365734089084501,05/03/2011 05:01,324
365734089084501,05/03/2011 05:02,324
365734089084501,05/03/2011 05:03,324.02
365734089084501,05/03/2011 05:04,324.02
365734089084501,05/03/2011 05:05,324.02
365734089084501,05/03/2011 05:06,324.02
365734089084501,05/03/2011 05:07,324.03
365734089084501,05/03/2011 05:08,324.03
365734089084501,05/03/2011 05:09,324.03
365734089084501,05/03/2011 05:10,324.03
365734089084501,05/03/2011 05:11,324.03
365734089084501,05/03/2011 05:12,324.04
365734089084501,05/03/2011 05:13,324.04
365734089084501,05/03/2011 05:14,324.04
365734089084501,05/03/2011 05:15,324.04
365734089084501,05/03/2011 05:16,324.04
365734089084501,05/03/2011 05:17,324.04
365734089084501,05/03/2011 05:18,324.06
365734089084501,05/03/2011 05:19,324.05
365734089084501,05/03/2011 05:20,324.06
365734089084501,05/03/2011 05:21,324.05
365734089084501,05/03/2011 05:22,324.06
365734089084501,05/03/2011 05:23,324.05
365734089084501,05/03/2011 05:24,324.07
365734089084501,05/03/2011 05:25,324.07
365734089084501,05/03/2011 05:26,324.07
365734089084501,05/03/2011 05:27,324.06
365734089084501,05/03/2011 05:28,324.07
365734089084501,05/03/2011 05:29,324.07
365734089084501,05/03/2011 05:30,324.07
365734089084501,05/03/2011 05:31,324.08
365734089084501,05/03/2011 05:32,324.08
365734089084501,05/03/2011 05:33,324.07
365734089084501,05/03/2011 05:34,324.07
365734089084501,05/03/2011 05:35,324.07
365734089084501,05/03/2011 05:36,324.1
365734089084501,05/03/2011 05:37,324.09
365734089084501,05/03/2011 05:38,324.08
365734089084501,05/03/2011 05:39,324.08
365734089084501,05/03/2011 05:40,324.09
365734089084501,05/03/2011 05:41,324.1
365734089084501,05/03/2011 05:42,324.1
365734089084501,05/03/2011 05:43,324.09
365734089084501,05/03/2011 05:44,324.09
365734089084501,05/03/2011 05:45,324.09
365734089084501,05/03/2011 05:46,324.09
365734089084501,05/03/2011 05:47,324.1
365734089084501,05/03/2011 05:48,324.11
365734089084501,05/03/2011 05:49,324.11
365734089084501,05/03/2011 05:50,324.1
365734089084501,05/03/2011 05:51,324.11
365734089084501,05/03/2011 05:52,324.11
365734089084501,05/03/2011 05:53,324.1
365734089084501,05/03/2011 05:54,324.1
365734089084501,05/03/2011 05:55,324.11
365734089084501,05/03/2011 05:56,324.11
365734089084501,05/03/2011 05:57,324.12
365734089084501,05/03/2011 05:58,324.12
365734089084501,05/03/2011 05:59,324.11
365734089084501,05/03/2011 06:00,324.11
365734089084501,05/03/2011 06:01,324.11
365734089084501,05/03/2011 06:02,324.11
365734089084501,05/03/2011 06:03,324.12
365734089084501,05/03/2011 06:04,324.13
365734089084501,05/03/2011 06:05,324.12
365734089084501,05/03/2011 06:06,324.12
365734089084501,05/03/2011 06:07,324.13
365734089084501,05/03/2011 06:08,324.13
365734089084501,05/03/2011 06:09,324.13
365734089084501,05/03/2011 06:10,324.13
365734089084501,05/03/2011 06:11,324.12
365734089084501,05/03/2011 06:12,324.13
365734089084501,05/03/2011 06:13,324.14
365734089084501,05/03/2011 06:14,324.13
365734089084501,05/03/2011 06:15,324.14
365734089084501,05/03/2011 06:16,324.14
365734089084501,05/03/2011 06:17,324.13
365734089084501,05/03/2011 06:18,324.13
365734089084501,05/03/2011 06:19,324.13
365734089084501,05/03/2011 06:20,324.14
365734089084501,05/03/2011 06:21,324.15
365734089084501,05/03/2011 06:22,324.14
365734089084501,05/03/2011 06:23,324.15
365734089084501,05/03/2011 06:24,324.14
365734089084501,05/03/2011 06:25,324.15
365734089084501,05/03/2011 06:26,324.14
365734089084501,05/03/2011 06:27,324.14
365734089084501,05/03/2011 06:28,324.14
365734089084501,05/03/2011 06:29,324.15
365734089084501,05/03/2011 06:30,324.15
365734089084501,05/03/2011 06:31,324.15
365734089084501,05/03/2011 06:32,324.15
365734089084501,05/03/2011 06:33,324.15
365734089084501,05/03/2011 06:34,324.14
365734089084501,05/03/2011 06:35,324.15
365734089084501,05/03/2011 06:36,324.15
365734089084501,05/03/2011 06:37,324.15
365734089084501,05/03/2011 06:38,324.15
365734089084501,05/03/2011 06:39,324.15
365734089084501,05/03/2011 06:40,324.14
365734089084501,05/03/2011 06:41,324.15
365734089084501,05/03/2011 06:42,324.13
365734089084501,05/03/2011 06:43,324.15
365734089084501,05/03/2011 06:44,324.14
365734089084501,05/03/2011 06:45,324.15
365734089084501,05/03/2011 06:46,324.15
365734089084501,05/03/2011 06:47,324.14
365734089084501,05/03/2011 06:48,324.15
365734089084501,05/03/2011 06:49,324.15
365734089084501,05/03/2011 06:50,324.15
365734089084501,05/03/2011 06:51,324.15
365734089084501,05/03/2011 06:52,324.16
365734089084501,05/03/2011 06:53,324.16
365734089084501,05/03/2011 06:54,324.15
365734089084501,05/03/2011 06:55,324.15
365734089084501,05/03/2011 06:56,324.16
365734089084501,05/03/2011 06:57,324.16
365734089084501,05/03/2011 06:58,324.15
365734089084501,05/03/2011 06:59,324.15
365734089084501,05/03/2011 07:00,324.15
365734089084501,05/03/2011 07:01,324.15
365734089084501,05/03/2011 07:02,324.15
365734089084501,05/03/2011 07:03,324.16
365734089084501,05/03/2011 07:04,324.15
365734089084501,05/03/2011 07:05,324.15
365734089084501,05/03/2011 07:06,324.15
365734089084501,05/03/2011 07:07,324.16
365734089084501,05/03/2011 07:08,324.14
365734089084501,05/03/2011 07:09,324.15
365734089084501,05/03/2011 07:10,324.15
365734089084501,05/03/2011 07:11,324.15
365734089084501,05/03/2011 07:12,324.15
365734089084501,05/03/2011 07:13,324.16
365734089084501,05/03/2011 07:14,324.16
365734089084501,05/03/2011 07:15,324.15
365734089084501,05/03/2011 07:16,324.15
365734089084501,05/03/2011 07:17,324.15
365734089084501,05/03/2011 07:18,324.14
365734089084501,05/03/2011 07:19,324.16
365734089084501,05/03/2011 07:20,324.15
365734089084501,05/03/2011 07:21,324.16
365734089084501,05/03/2011 07:22,324.16
365734089084501,05/03/2011 07:23,324.16
365734089084501,05/03/2011 07:24,324.16
365734089084501,05/03/2011 07:25,324.14
365734089084501,05/03/2011 07:26,324.15
365734089084501,05/03/2011 07:27,324.15
365734089084501,05/03/2011 07:28,324.14
365734089084501,05/03/2011 07:29,324.14
365734089084501,05/03/2011 07:30,324.15
365734089084501,05/03/2011 07:31,324.16
365734089084501,05/03/2011 07:32,324.16
365734089084501,05/03/2011 07:33,324.15
365734089084501,05/03/2011 07:34,324.15
365734089084501,05/03/2011 07:35,324.14
365734089084501,05/03/2011 07:36,324.15
365734089084501,05/03/2011 07:37,324.15
365734089084501,05/03/2011 07:38,324.15
365734089084501,05/03/2011 07:39,324.15
365734089084501,05/03/2011 07:40,324.15
365734089084501,05/03/2011 07:41,324.15
365734089084501,05/03/2011 07:42,324.15
365734089084501,05/03/2011 07:43,324.15
365734089084501,05/03/2011 07:44,324.15
365734089084501,05/03/2011 07:45,324.14
365734089084501,05/03/2011 07:46,324.16
365734089084501,05/03/2011 07:47,324.16
365734089084501,05/03/2011 07:48,324.16
365734089084501,05/03/2011 07:49,324.16
365734089084501,05/03/2011 07:50,324.16
365734089084501,05/03/2011 07:51,324.15
365734089084501,05/03/2011 07:52,324.15
365734089084501,05/03/2011 07:53,324.15
365734089084501,05/03/2011 07:54,324.14
365734089084501,05/03/2011 07:55,324.14
365734089084501,05/03/2011 07:56,324.15
365734089084501,05/03/2011 07:57,324.15
365734089084501,05/03/2011 07:58,324.15
365734089084501,05/03/2011 07:59,324.15
365734089084501,05/03/2011 08:00,324.14
365734089084501,05/03/2011 08:01,324.15
365734089084501,05/03/2011 08:02,324.14
365734089084501,05/03/2011 08:03,324.14
365734089084501,05/03/2011 08:04,324.14
365734089084501,05/03/2011 08:05,324.14
365734089084501,05/03/2011 08:06,324.15
365734089084501,05/03/2011 08:07,324.14
365734089084501,05/03/2011 08:08,324.14
365734089084501,05/03/2011 08:09,324.14
365734089084501,05/03/2011 08:10,324.15
365734089084501,05/03/2011 08:11,324.14
365734089084501,05/03/2011 08:12,324.14
365734089084501,05/03/2011 08:13,324.14
365734089084501,05/03/2011 08:14,324.14
365734089084501,05/03/2011 08:15,324.14